Weather History for Culdrose, United Kingdom

Change the Weather History Date:

Thursday, February 28, 2013

  Actual Average Record
Temperature  
Mean Temperature 37 °F -  
Max Temperature 42 °F 48 °F 53 °F (2012)
Min Temperature 32 °F 40 °F 24 °F (2005)
Degree Days  
Heating Degree Days 28    
Moisture  
Dew Point 28 °F    
Average Humidity 67    
Maximum Humidity 93    
Minimum Humidity 40    
Precipitation  
Precipitation 0.00 in - - ()
Sea Level Pressure  
Sea Level Pressure 30.36 in    
Wind  
Wind Speed 9 mph ()    
Max Wind Speed 15 mph    
Max Gust Speed -    
Visibility 5.8 miles    
Events Rain    
Averages and records for this station are not official NWS values.
T = Trace of Precipitation, MM = Missing Value Source: Averaged Metar Reports

Daily Weather History Graph

Daily Weather History Graph

Search for Another Location

Airport:

Trip Planner

Search our weather history database for the weather conditions in past years. The results will help you decide how hot, cold, wet, or windy it might be!

Date:

Astronomy

Feb. 28, 2013 Rise Set
Actual Time 7:06 AM GMT 6:01 PM GMT
Civil Twilight 6:33 AM GMT 6:34 PM GMT
Nautical Twilight 5:56 AM GMT 7:11 PM GMT
Astronomical Twilight 5:18 AM GMT 7:49 PM GMT
Moon 9:38 PM GMT (2/28) 7:46 AM GMT (2/28)
Length of Visible Light 12h 00m
Length of Day
10h 55m
Waning Gibbous, 92% of the Moon is Illuminated
Feb 28
Waning Gibbous
Mar 4
Last Quarter
Mar 11
New
Mar 19
First Quarter
Mar 27
Full

Hourly Weather History & Observations

Time (GMT) Temp. Windchill Dew Point Humidity Pressure Visibility Wind Dir Wind Speed Gust Speed Precip Events Conditions
12:50 AM 33.8 °F 27.0 °F 30.2 °F 87% 30.42 in 3.7 mi NNE 8.1 mph - N/A   Haze
1:50 AM 33.8 °F 26.4 °F 28.4 °F 81% 30.42 in 5.0 mi NE 9.2 mph - N/A   Haze
2:50 AM 33 °F - 29 °F 80% 30.42 in 4 mi NE 8.1 mph - -   Haze
2:50 AM 33.8 °F 27.0 °F 28.4 °F 81% 30.39 in 4.3 mi NE 8.1 mph - N/A   Haze
3:50 AM 33.8 °F 27.0 °F 30.2 °F 87% 30.39 in 4.3 mi NE 8.1 mph - N/A   Haze
4:50 AM 35.6 °F 27.5 °F 30.2 °F 81% 30.36 in 3.7 mi ENE 11.5 mph - N/A   Haze
5:50 AM 35 °F - 31 °F 78% 30.40 in 4 mi ENE 6.9 mph - -   Haze
5:50 AM 35.6 °F 29.9 °F 30.2 °F 81% 30.36 in 3.7 mi ENE 6.9 mph - N/A   Haze
6:50 AM 32.0 °F 25.6 °F 30.2 °F 93% 30.36 in 3.1 mi NNE 6.9 mph - N/A   Haze
7:50 AM 33.8 °F 25.8 °F 28.4 °F 81% 30.39 in 4.3 mi NE 10.4 mph - N/A   Haze
8:50 AM 35 °F - 29 °F 72% 30.42 in 5 mi NE 10.4 mph - -   Haze
8:50 AM 35.6 °F 28.0 °F 30.2 °F 81% 30.39 in 5.0 mi NE 10.4 mph - N/A   Haze
9:50 AM 37.4 °F 29.8 °F 28.4 °F 70% 30.39 in 6.2 mi ENE 11.5 mph - N/A   Mostly Cloudy
10:50 AM 39.2 °F 33.0 °F 28.4 °F 65% 30.39 in 6.2 mi ENE 9.2 mph - N/A   Mostly Cloudy
11:50 AM 41 °F - 26 °F 44% 30.39 in 9 mi East 11.5 mph - -   Haze
11:50 AM 41.0 °F 34.3 °F 26.6 °F 57% 30.36 in 6.2 mi East 11.5 mph - N/A   Mostly Cloudy
12:50 PM 41.0 °F 33.5 °F 24.8 °F 53% 30.36 in 6.2 mi ENE 13.8 mph - N/A   Mostly Cloudy
1:50 PM 42.8 °F 35.4 °F 23.0 °F 46% 30.33 in 6.2 mi NE 15.0 mph - N/A   Mostly Cloudy
2:50 PM 42 °F - 26 °F 40% 30.35 in 12 mi ENE 11.5 mph - - Rain Light Rain
2:50 PM 42.8 °F 36.6 °F 26.6 °F 53% 30.33 in 6.2 mi ENE 11.5 mph - N/A Rain Light Rain
3:50 PM 41.0 °F 33.5 °F 28.4 °F 61% 30.30 in 6.2 mi ENE 13.8 mph - N/A Rain Light Rain
4:50 PM 41.0 °F 35.2 °F 28.4 °F 61% 30.30 in 6.2 mi ENE 9.2 mph - N/A   Mostly Cloudy
5:50 PM 41.0 °F 34.7 °F 28.4 °F 61% 30.30 in 6.2 mi ENE 10.4 mph - N/A   Overcast
6:50 PM 41.0 °F 34.3 °F 26.6 °F 57% 30.33 in 6.2 mi ENE 11.5 mph - N/A   Overcast
7:50 PM 41.0 °F 34.7 °F 26.6 °F 57% 30.33 in 6.2 mi ENE 10.4 mph - N/A   Overcast
8:50 PM 41 °F - 27 °F 45% 30.35 in 10 mi NE 8.1 mph - -   Haze
8:50 PM 41.0 °F 35.8 °F 26.6 °F 57% 30.33 in 6.2 mi NE 8.1 mph - N/A   Overcast
9:50 PM 41.0 °F 36.4 °F 28.4 °F 61% 30.33 in 6.2 mi NE 6.9 mph - N/A   Overcast
10:50 PM 39.2 °F 33.6 °F 28.4 °F 65% 30.33 in - NE 8.1 mph - N/A   Clear
11:50 PM 39.2 °F 32.5 °F 28.4 °F 65% 30.30 in - NE 10.4 mph - N/A   Clear